Address 0x170362429a8015d753952e9ae1796455207cae43 11

Txn Hash Method
Block
From
To
Value [Txn Fee]
0x56e94cc531d35d5cc1b8f24e026ee7775f33fd48db9904489097f06992feb2980x6549920d139713642022-09-26 3:24:322 days 29 mins ago0x170362429a8015d753952e9ae1796455207cae43OUT0x2e1d0c56c6913fd6135f887080f7a14123a142a80 AVAX0.064629100
0x7a5a489f7ecf7d43cd1afe28e71e766da4409ad999390fb98c3c7940a0de62690xbef1e500139697972022-09-26 2:56:232 days 57 mins ago0x170362429a8015d753952e9ae1796455207cae43OUT0x2e1d0c56c6913fd6135f887080f7a14123a142a80 AVAX0.026724100
0x69dd011627803319fdb2da1e207bc492ecfe0a546dc6befb02a33e2d5363cc000x6549920d139689952022-09-26 2:42:172 days 1 hr ago0x170362429a8015d753952e9ae1796455207cae43OUT0x2e1d0c56c6913fd6135f887080f7a14123a142a80 AVAX0.0638322100
0xebadc8c04d891d734a2976f6e01170b918f83301e0c803cf6806123e068cac300xbef1e500139676492022-09-26 2:18:432 days 1 hr ago0x170362429a8015d753952e9ae1796455207cae43OUT0x2e1d0c56c6913fd6135f887080f7a14123a142a80 AVAX0.026724100
0xfbf381716949a1bc2fd32b4c20c5c60816ed7b4d674071c14e0dc008bd14b1710x6549920d139665092022-09-26 1:58:542 days 1 hr ago0x170362429a8015d753952e9ae1796455207cae43OUT0x2e1d0c56c6913fd6135f887080f7a14123a142a80 AVAX0.0649219100
0x9ab01175ee69b365e189f23632348a39bdda5e3b9a645a2969f7119a21c863fa0xbef1e500139654522022-09-26 1:40:352 days 2 hrs ago0x170362429a8015d753952e9ae1796455207cae43OUT0x2e1d0c56c6913fd6135f887080f7a14123a142a80 AVAX0.028434100
0x98f409d9f2fa7d4298651ac655c08d9b92252745ebab35ae04a576d58fc6d3120x6549920d139640432022-09-26 1:15:502 days 2 hrs ago0x170362429a8015d753952e9ae1796455207cae43OUT0x2e1d0c56c6913fd6135f887080f7a14123a142a80 AVAX0.066339100
0x6efd0f8d29a4814326391b436861134a77513169fe2d840b21ff496decf4bc150x6549920d139617842022-09-26 0:33:202 days 3 hrs ago0x170362429a8015d753952e9ae1796455207cae43OUT0x2e1d0c56c6913fd6135f887080f7a14123a142a80 AVAX0.0655422100
0x8d2cf86aed8df57f5a36ce48580439625ac16de97e2cfb8d8fbc2929280e194d0x6549920d139595102022-09-25 23:51:582 days 4 hrs ago0x170362429a8015d753952e9ae1796455207cae43OUT0x2e1d0c56c6913fd6135f887080f7a14123a142a80 AVAX0.0649219100
0x6e1e541ad19e1e781392276d9b5cd73970f58e83cb30deecc65c52552dba35c20x6549920d139572102022-09-25 23:08:542 days 4 hrs ago0x170362429a8015d753952e9ae1796455207cae43OUT0x2e1d0c56c6913fd6135f887080f7a14123a142a80 AVAX0.068049100
0x02260a76d5a7c8c8f90f3fc6bef3446ec0fe95f9f63b8a4d3700040b0a9073d10x6549920d139549022022-09-25 22:25:502 days 5 hrs ago0x170362429a8015d753952e9ae1796455207cae43OUT0x2e1d0c56c6913fd6135f887080f7a14123a142a80 AVAX0.0655422100
0x694d2b97eebf3f820930d5490f460dbfb4f724021ab0069339d6fecc28020ee80x6549920d139525812022-09-25 21:42:592 days 6 hrs ago0x170362429a8015d753952e9ae1796455207cae43OUT0x2e1d0c56c6913fd6135f887080f7a14123a142a80 AVAX0.0649219100
0x2e1c19811b0734b0018534aa1280e2f3ae01eb0bd9be806e0f45e9e243b76e7c0x6549920d139502632022-09-25 20:59:372 days 6 hrs ago0x170362429a8015d753952e9ae1796455207cae43OUT0x2e1d0c56c6913fd6135f887080f7a14123a142a80 AVAX0.068049100
0x93496e3e3d3325fb9a3d4a85e9b89a6ca67925427ffb777eb2ddb1154f2022240x6549920d139478822022-09-25 20:14:482 days 7 hrs ago0x170362429a8015d753952e9ae1796455207cae43OUT0x2e1d0c56c6913fd6135f887080f7a14123a142a80 AVAX0.0655422100
0x39b2cd992be51033ac510e28d130bcabf70cc9b1783789c59220413b0d6a731cHarvest139464032022-09-25 19:47:062 days 8 hrs ago0x170362429a8015d753952e9ae1796455207cae43OUT0x951accccfdf619d3cd8cfe0e4823d8e80354eb410 AVAX0.00647100
0x6ec6a315da093b3eefb2e3ce606ae59f33859bea718fa4ef95ac56df3cef6ce40x6549920d139455382022-09-25 19:31:082 days 8 hrs ago0x170362429a8015d753952e9ae1796455207cae43OUT0x2e1d0c56c6913fd6135f887080f7a14123a142a80 AVAX0.0649219100
0x2e5d1c000ba743725a0104c40863a2cdce1a5697690bf6ac4cf8168df3a41264Harvest139442122022-09-25 19:06:272 days 8 hrs ago0x170362429a8015d753952e9ae1796455207cae43OUT0x951accccfdf619d3cd8cfe0e4823d8e80354eb410 AVAX0.0081923100
0x734200b8dee8e88deda0d67b79ba2f15e588982673eb39d82adf4223e2d3d00d0x6549920d139431202022-09-25 18:45:012 days 9 hrs ago0x170362429a8015d753952e9ae1796455207cae43OUT0x2e1d0c56c6913fd6135f887080f7a14123a142a80 AVAX0.068049100
0x966cacf0ecf7bbb98e4bad969db9332d19d2a16b19ebf7cb0ef1e75fb4eb8793Harvest139420022022-09-25 18:24:012 days 9 hrs ago0x170362429a8015d753952e9ae1796455207cae43OUT0x951accccfdf619d3cd8cfe0e4823d8e80354eb410 AVAX0.0081923100
0xaac24a5904d85f7f082ab0a07b34df16fb1672d33ec27c74dc6debcc876b6bf20x6549920d139407372022-09-25 17:58:572 days 9 hrs ago0x170362429a8015d753952e9ae1796455207cae43OUT0x2e1d0c56c6913fd6135f887080f7a14123a142a80 AVAX0.0672522100
0x53811514ef8fffab80df2857f47a145b9103f35a9eb9a9ee04e66ddc5c9c98d0Harvest139398042022-09-25 17:40:272 days 10 hrs ago0x170362429a8015d753952e9ae1796455207cae43OUT0x951accccfdf619d3cd8cfe0e4823d8e80354eb410 AVAX0.00647100
0x110f513a362649aecc10c5cdfa5abbdd2dca0215d84f65fd0d2895fcd54dcd1d0x6549920d139382832022-09-25 17:10:582 days 10 hrs ago0x170362429a8015d753952e9ae1796455207cae43OUT0x2e1d0c56c6913fd6135f887080f7a14123a142a80 AVAX0.0666319100
0xaa3f89519d76e5dd7800a2777a13ffa86052352e746d9d24cadcd58ddaa53870Harvest139374972022-09-25 16:55:172 days 10 hrs ago0x170362429a8015d753952e9ae1796455207cae43OUT0x951accccfdf619d3cd8cfe0e4823d8e80354eb410 AVAX0.0081923100
0xa52d52875c3784462f06908ee898215260564818f6f20680b87a5c6e8ea461600x4ea4c6b3139363422022-09-25 16:24:532 days 11 hrs ago0x170362429a8015d753952e9ae1796455207cae43OUT0x2e1d0c56c6913fd6135f887080f7a14123a142a80 AVAX0.0212157100
0x9d3cba32ca73ff11b756ba67964c6dc6ff56063c3f3f2ac65c85737d01425e410xab07211e139358162022-09-25 16:07:222 days 11 hrs ago0x170362429a8015d753952e9ae1796455207cae43OUT0x2e1d0c56c6913fd6135f887080f7a14123a142a80 AVAX0.0210672100
[ Download CSV Export 
Parent Txn Hash Block From To Value
Loading

Contract Name:
0

Compiler Version
0

Optimization Enabled:
0

Other Settings:
-NA-
Block Transaction Gas Used Reward
Age Block Fee Address BC Fee Address Voting Power Jailed Incoming
Block Uncle Number Difficulty Gas Used Reward
Loading